#timestamp,LO_Frequency,Hit 
1505257215.1,286047019.8,N
1505257216.0,286047019.8,N
1505257235.8,286047021.6,N
1505257255.7,286047019.1,N
1505257275.5,286047015.9,N
1505257295.3,286047015.1,N
1505257315.2,286047013.5,N
1505257335.9,286047014.0,N
1505257355.7,286047016.7,N
1505257375.6,286047016.3,N
1505257395.4,286047018.6,N
1505257415.2,286047020.2,N
1505257435.0,286047018.9,N
1505257435.9,286047018.9,N
1505257455.8,286047018.8,N
1505257475.6,286047018.6,N
1505257495.4,286047014.3,N
1505257515.3,286047014.2,N
1505257535.1,286047018.0,N
1505257555.8,286047016.3,P
1505257575.7,286046999.7,N
1505257595.5,286047002.2,N
1505257615.3,286047003.6,N
1505257635.2,286047004.9,N
1505257655.9,286047008.0,N
1505257675.7,286047011.0,N
1505257695.6,286047013.4,N
1505257715.4,286047015.2,N
1505257735.2,286047013.8,N
1505257755.1,286047012.4,N
1505257756.0,286047012.4,N
1505257775.8,286047012.1,N
1505257795.6,286047011.7,N
1505257815.4,286047010.0,N
1505257835.3,286047013.5,N
1505257855.1,286047013.0,N
1505257875.8,286047011.5,N
1505257895.7,286047010.2,N
1505257915.5,286047012.0,N
1505257935.3,286047009.0,N
1505257955.2,286047006.1,N
1505257975.9,286047004.1,N
1505257995.7,286046999.2,N
1505258015.6,286046993.2,N
1505258035.4,286046994.8,N
1505258055.2,286046993.1,N
1505258075.1,286046990.7,N
1505258076.0,286046990.7,N
1505258095.8,286046991.6,N
1505258115.6,286046987.1,N
1505258135.5,286046987.3,N
1505258155.3,286046989.9,N
1505258175.1,286046989.5,N
1505258195.8,286046991.3,N
1505258215.7,286046985.9,N
1505258235.5,286046982.1,N
1505258255.3,286046983.5,N
1505258275.2,286046981.3,N
1505258295.9,286046979.1,N
1505258315.7,286046982.6,N
1505258335.6,286046983.7,N
1505258355.4,286046980.9,N
1505258375.2,286046980.7,N
1505258395.1,286046979.1,N
1505258396.0,286046979.1,N
1505258415.8,286046976.0,N
1505258435.6,286046978.4,N
1505258455.5,286046977.0,N
1505258475.3,286046974.2,N
1505258495.1,286046974.9,N
1505258515.9,286046976.1,N
1505258535.7,286046979.2,N
1505258555.5,286046988.1,N
1505258575.3,286046989.5,N
1505258595.2,286046988.9,N
1505258615.0,286046988.8,N
1505258615.9,286046988.8,N
1505258635.7,286046986.6,N
1505258655.6,286046983.2,P
1505258675.4,286046997.1,P
1505258695.2,286046992.7,N
1505258715.1,286046990.6,N
1505258716.0,286046990.6,N
1505258735.8,286046987.4,N
1505258755.6,286046988.3,N
1505258775.5,286046992.5,N
1505258795.3,286046999.0,N
1505258815.1,286047001.9,N
1505258835.9,286047004.2,N
1505258855.7,286047005.8,N
1505258875.5,286047006.0,N
1505258895.4,286047003.8,N
1505258915.2,286046996.8,N
1505258935.0,286046995.5,N
1505258935.9,286046995.5,N
1505258955.8,286046998.4,N
1505258975.6,286047001.6,N
1505258995.4,286047012.4,N
1505259015.3,286047013.5,N
1505259035.1,286047015.3,N
1505259036.0,286047015.3,N
1505259055.8,286047018.2,N
1505259075.7,286047020.2,N
1505259095.5,286047019.2,N
1505259115.3,286047021.3,N
1505259135.1,286047017.7,N
1505259155.9,286047017.6,N
1505259175.7,286047017.7,N
1505259195.5,286047021.6,N
1505259215.4,286047021.2,N
1505259235.2,286047021.3,N
1505259255.0,286047023.5,N
1505259255.9,286047023.5,N
1505259275.8,286047017.5,N
1505259295.6,286047016.1,N
1505259315.4,286047019.3,N
1505259335.3,286047024.3,N
1505259355.1,286047026.7,N
1505259356.0,286047026.7,N
1505259375.8,286047023.0,N
1505259395.7,286047024.2,N
1505259415.5,286047027.8,N
1505259435.3,286047026.4,N
1505259455.2,286047026.5,P
1505259475.9,286047008.1,N
1505259495.7,286047009.4,N
1505259515.6,286047009.6,N
1505259535.4,286047012.4,N
1505259555.2,286047008.4,N
1505259575.0,286047008.0,N
1505259576.0,286047008.0,N
1505259595.8,286047010.1,N
1505259615.6,286047010.0,N
1505259635.4,286047010.7,N
1505259655.3,286047009.2,N
1505259675.1,286047008.9,N
1505259695.8,286047008.0,N
1505259715.7,286047009.6,N
1505259735.5,286047011.0,N
1505259755.3,286047010.3,N
1505259775.2,286047008.4,N
1505259795.9,286047006.8,N
1505259815.7,286047000.3,N
1505259835.6,286046994.6,N
1505259855.4,286046993.4,N
1505259875.2,286046994.2,N
1505259895.0,286046993.2,N
1505259896.0,286046993.2,N
1505259915.8,286046994.7,N
1505259935.6,286046989.9,N
1505259955.4,286046989.9,N
1505259975.3,286046987.7,N
1505259995.1,286046991.6,N
1505260015.8,286046992.2,N
1505260035.7,286046998.0,N
1505260055.5,286047004.4,N
1505260075.3,286047004.7,N
1505260095.2,286047003.3,N
1505260115.9,286047003.7,N
1505260135.7,286047002.4,N
1505260155.6,286046998.1,N
1505260175.4,286046996.9,N
1505260195.2,286046997.0,N
1505260215.1,286046996.7,N
1505260216.0,286046996.7,N
1505260235.8,286046993.7,N
1505260255.6,286046991.6,N
1505260275.5,286046987.6,N
1505260295.3,286046983.7,N
1505260315.1,286046984.0,N
1505260335.8,286046981.1,N
1505260355.7,286046978.0,P
1505260375.5,286046982.7,N
1505260395.3,286046985.7,N
1505260415.2,286046987.3,N
1505260435.0,286046985.0,N
1505260435.9,286046985.0,N
1505260455.8,286046984.9,P
1505260475.6,286046998.3,P
1505260495.4,286046999.4,N
1505260515.3,286047000.5,N
1505260535.1,286046999.0,N
1505260536.0,286046999.0,N
1505260555.8,286047002.6,N
1505260575.6,286046998.5,N
1505260595.5,286046999.1,N
1505260615.3,286047000.7,N
1505260635.1,286046996.5,N
1505260655.9,286046994.1,N
1505260675.7,286046990.9,N
1505260695.5,286046988.9,N
1505260715.4,286046992.8,N
1505260735.2,286046992.0,N
1505260755.0,286046990.9,N
1505260755.9,286046990.9,N
1505260775.8,286046988.5,N
1505260795.6,286046990.4,N
